{"data":{"norad_id":47265,"epoch":"2026-05-25T02:31:34.358592Z","epoch_age_seconds":62977,"freshness":"FRESH","line1":"1 47265U 20100H   26145.10525878  .00000464  00000+0  12539-2 0  9996","line2":"2 47265  87.8950 355.2616 0001773  86.6573 273.4758 13.12442220261673","mean_motion":13.1244222,"eccentricity":0.0001773,"inclination_deg":87.895,"raan_deg":355.2616,"arg_perigee_deg":86.6573,"mean_anomaly_deg":273.4758,"bstar":0.0012539,"rev_number":26167,"period_min":109.71911586325,"perigee_km":1212.3802616397,"apogee_km":1215.0723363655,"semimajor_km":7591.8632990026,"source":"CELESTRAK","updated_at":"2026-05-25T13:38:22.380487Z"}}